Simultaneous Nadir Overpasses (SNOs) Predictions

Prediction of SNOs between METOP-B and TERRA Satellite Orbit:

Table of predicted SNOs for the next 14.0 days since TLE Epoch: 7/25/2020
Index Date (METOP-B) Time (METOP-B) Lat,Lon (METOP-B) SZA (METOP-B ) Date (TERRA) Time (TERRA) Lat,Lon (TERRA) SZA (TERRA ) Distance(km) Time Diff (sec)
1 07/25/2020 13:46:54 81.32, 20.95 64.62 07/25/2020 13:47:09 81.33, 21.02 64.63 1.19 15
2 07/25/2020 14:37:33 -81.33,-171.05 115.30 07/25/2020 14:36:35 -81.34,-171.07 115.33 0.85 58
3 07/28/2020 09:21:14 81.33, 87.74 65.30 07/28/2020 09:21:24 81.33, 87.58 65.29 2.70 10
4 07/28/2020 10:11:55 -81.33,-105.04 114.71 07/28/2020 10:10:51 -81.33,-104.86 114.72 2.99 64
5 07/31/2020 04:55:35 81.32, 153.74 65.93 07/31/2020 04:55:39 81.32, 153.73 65.92 0.91 4
6 07/31/2020 05:46:14 -81.33, -38.25 113.99 07/31/2020 05:45:05 -81.33, -38.31 114.03 1.04 69
7 08/02/2020 23:39:16 -81.32, 52.47 113.41 08/02/2020 23:40:28 -81.32, 52.51 113.37 0.73 72
8 08/03/2020 00:29:56 81.32,-139.88 66.65 08/03/2020 00:29:54 81.32,-139.79 66.65 1.62 2
9 08/03/2020 01:20:17 -81.35, 35.23 112.41 08/03/2020 01:19:03 -81.62, 34.90 112.34 31.06 74
10 08/05/2020 19:13:37 -81.32, 118.85 112.65 08/05/2020 19:14:43 -81.32, 118.97 112.61 2.11 66
